#timestamp,LO_Frequency,Hit 
1498464015.2,286046886.0,N
1498464035.0,286046884.5,N
1498464035.9,286046884.5,N
1498464055.8,286046885.9,N
1498464075.6,286046883.3,N
1498464095.4,286046883.8,N
1498464115.3,286046884.4,N
1498464135.1,286046882.3,N
1498464136.0,286046882.3,N
1498464155.8,286046880.8,N
1498464175.7,286046880.5,N
1498464195.5,286046881.1,N
1498464215.3,286046882.7,N
1498464235.1,286046880.5,N
1498464255.9,286046880.1,N
1498464275.7,286046880.9,N
1498464295.5,286046878.9,N
1498464315.4,286046876.5,N
1498464335.2,286046876.6,N
1498464355.0,286046874.9,N
1498464355.9,286046874.9,N
1498464375.8,286046873.5,N
1498464395.6,286046876.4,N
1498464415.4,286046874.5,N
1498464435.3,286046873.2,N
1498464455.1,286046868.8,N
1498464456.0,286046868.8,N
1498464475.8,286046867.4,N
1498464495.7,286046865.3,N
1498464515.5,286046866.8,N
1498464535.3,286046862.2,N
1498464555.1,286046862.8,N
1498464575.9,286046862.8,N
1498464595.7,286046862.6,N
1498464615.5,286046864.5,N
1498464635.4,286046863.5,N
1498464655.2,286046859.6,N
1498464675.0,286046859.3,N
1498464675.9,286046859.3,N
1498464695.8,286046857.7,N
1498464715.6,286046857.5,N
1498464735.4,286046860.3,N
1498464755.3,286046859.9,N
1498464775.1,286046858.2,N
1498464776.0,286046858.2,N
1498464795.8,286046856.8,N
1498464815.7,286046854.5,N
1498464835.5,286046857.2,N
1498464855.3,286046854.8,N
1498464875.1,286046857.0,N
1498464895.9,286046855.2,N
1498464915.7,286046851.0,N
1498464935.5,286046852.3,N
1498464955.4,286046850.1,N
1498464975.2,286046847.9,N
1498464995.0,286046846.5,N
1498464995.9,286046846.5,N
1498465015.8,286046847.3,N
1498465035.6,286046848.0,N
1498465055.4,286046847.8,N
1498465075.3,286046850.3,N
1498465095.1,286046849.0,N
1498465096.0,286046849.0,N
1498465115.8,286046849.2,N
1498465135.7,286046846.6,N
1498465155.5,286046847.3,N
1498465175.3,286046846.7,N
1498465195.1,286046846.8,N
1498465215.9,286046845.7,N
1498465235.7,286046845.3,N
1498465255.5,286046844.8,N
1498465275.4,286046844.4,N
1498465295.2,286046843.4,N
1498465315.0,286046843.8,N
1498465315.9,286046843.8,N
1498465335.8,286046842.5,N
1498465355.6,286046841.8,N
1498465375.4,286046843.5,N
1498465395.3,286046842.3,N
1498465415.1,286046842.1,N
1498465416.0,286046842.1,N
1498465435.8,286046841.3,N
1498465455.7,286046841.9,N
1498465475.5,286046843.2,N
1498465495.3,286046841.3,N
1498465515.1,286046842.2,N
1498465535.9,286046840.2,N
1498465555.7,286046840.8,N
1498465575.5,286046838.3,N
1498465595.4,286046840.1,N
1498465615.2,286046842.1,N
1498465635.0,286046839.7,N
1498465635.9,286046839.7,N
1498465655.8,286046842.2,N
1498465675.6,286046839.8,N
1498465695.4,286046844.0,N
1498465715.3,286046841.4,N
1498465735.1,286046842.4,N
1498465736.0,286046842.4,N
1498465755.8,286046840.6,N
1498465775.7,286046839.6,N
1498465795.5,286046839.2,N
1498465815.3,286046840.5,N
1498465835.2,286046840.4,N
1498465855.9,286046836.9,N
1498465875.7,286046838.3,N
1498465895.5,286046838.6,N
1498465915.4,286046839.0,N
1498465935.2,286046838.9,N
1498465955.0,286046837.5,N
1498465955.9,286046837.5,N
1498465975.8,286046836.6,N
1498465995.6,286046839.5,N
1498466015.4,286046836.8,N
1498466035.3,286046837.3,N
1498466055.1,286046837.8,N
1498466056.0,286046837.8,N
1498466075.8,286046835.5,N
1498466095.7,286046835.2,N
1498466115.5,286046834.0,N
1498466135.3,286046833.4,N
1498466155.1,286046835.4,N
1498466175.9,286046836.2,N
1498466195.7,286046835.7,N
1498466215.5,286046837.8,N
1498466235.4,286046837.2,N
1498466255.2,286046838.8,N
1498466275.0,286046836.6,N
1498466275.9,286046836.6,N
1498466295.8,286046835.2,N
1498466315.6,286046835.3,N
1498466335.4,286046837.7,N
1498466355.3,286046836.6,N
1498466375.1,286046836.5,N
1498466376.0,286046836.5,N
1498466395.8,286046835.7,N
1498466415.7,286046834.0,N
1498466435.5,286046831.8,N
1498466455.3,286046832.5,N
1498466475.1,286046831.2,N
1498466495.9,286046829.2,N
1498466515.7,286046829.0,N
1498466535.5,286046825.5,N
1498466555.4,286046828.6,N
1498466575.2,286046828.6,N
1498466595.0,286046828.9,N
1498466595.9,286046828.9,N
1498466615.8,286046828.5,N
1498466635.6,286046828.7,N
1498466655.4,286046827.3,N
1498466675.3,286046826.1,N
1498466695.1,286046826.1,N
1498466696.0,286046826.1,N
1498466715.8,286046824.3,N
1498466735.6,286046826.0,N
1498466755.5,286046826.3,N
1498466775.3,286046826.7,N
1498466795.1,286046826.0,N
1498466815.9,286046828.1,N
1498466835.7,286046827.5,N
1498466855.5,286046825.9,N
1498466875.4,286046823.9,N
1498466895.2,286046825.1,N
1498466915.0,286046823.2,N
1498466915.9,286046823.2,N
1498466935.8,286046821.1,N
1498466955.6,286046821.5,N
1498466975.4,286046820.1,N
1498466995.3,286046813.0,Y
1498467015.1,286046904.9,N
1498467016.0,286046904.9,N
1498467035.8,286046902.3,N
1498467055.7,286046900.2,N
1498467075.5,286046898.3,N
1498467095.3,286046898.7,N
1498467115.2,286046895.7,N
1498467135.9,286046894.6,N
1498467155.7,286046894.7,N
1498467175.5,286046894.8,N
1498467195.4,286046897.2,N
1498467215.2,286046896.8,N
1498467235.0,286046894.2,N
1498467235.9,286046894.2,N
1498467255.8,286046894.2,N
1498467275.6,286046897.2,N
1498467295.4,286046896.7,N
1498467315.3,286046892.6,N
1498467335.1,286046893.0,N
1498467336.0,286046893.0,N
1498467355.8,286046895.2,N
1498467375.7,286046892.6,N
1498467395.5,286046892.7,N
1498467415.3,286046891.4,N
1498467435.2,286046890.0,N
1498467455.9,286046888.0,N
1498467475.7,286046888.5,N
1498467495.5,286046890.0,N
1498467515.4,286046889.9,N
1498467535.2,286046891.3,N
1498467555.0,286046891.4,N
1498467555.9,286046891.4,N
1498467575.8,286046892.2,N
1498467595.6,286046893.6,N
